Regional Weather Roundup
Issued by NWS Sterling, VA

Home | Current Version | Previous Version | Text Only | Print | Product List | Glossary On
Versions: 1 2 3 4 5 6 7 8 9 10 11 12 13 14 15 16 17 18 19 20 21 22 23 24 25 26 27 28 29 30 31 32 33 34 35 36 37 38 39 40 41 42 43 44 45 46 47 48 49 50
000
ASUS41 KLWX 271411
RWRLWX

REGIONAL WEATHER ROUNDUP
NATIONAL WEATHER SERVICE BALTIMORE MD/WASHINGTON DC
1000 AM EDT FRI MAY 27 2016

Note: "FAIR" indicates few or no clouds below 12,000 feet
with no significant weather and/or obstructions to visibility.
 TC=TEMPERATURE CELSIUS

 * =Non NWS site. Station does not report precipitation (e.g. rain,
    snow, etc.), thunder, or fog.

DCZ001-MDZ009-015-VAZ040>042-051-053>054-271500-
WASHINGTON METRO

CITY           SKY/WX    TMP DP  RH WIND       PRES   REMARKS
WASHINGTON NAT PTSUNNY   77  67  71 S8        30.09S
DULLES         FAIR      80  66  62 CALM      30.09S
QUANTICO       FAIR      75  68  78 S9        30.10S
COLLEGE PARK*  FAIR      79  64  61 CALM      30.08R
LEESBURG*      FAIR      82  70  65 S9        30.10S
MANASSAS*      SUNNY     79  68  69 CALM      30.09S

$$

MDZ006>007-011-014-271500-
BALTIMORE METRO

CITY           SKY/WX    TMP DP  RH WIND       PRES   REMARKS
BWI AIRPORT    PTSUNNY   81  66  60 SW5       30.07S
MD SCIENCE CTR   N/A     83  66  56 MISG      30.07S
MARTIN STATE   MOSUNNY   79  72  78 SE6       30.08F
ANNAPOLIS      SUNNY     79  68  69 S6        30.08R
FORT MEADE*    SUNNY     79  66  65 S5        30.10S

$$

MDZ012-015-019>023-271500-
MARYLAND EASTERN SHORE

CITY           SKY/WX    TMP DP  RH WIND       PRES   REMARKS
OCEAN CITY     SUNNY     74  65  73 S8        30.12S
SALISBURY      SUNNY     79  64  60 SW12      30.11S
BAY BRIDGE AP* SUNNY     77  66  69 SW7       30.08S
CAMBRIDGE*     SUNNY     77  66  69 S5        30.10S
EASTON*        SUNNY     77  72  83 SW8       30.13S

$$

MDZ017>025-271500-
SOUTHERN MARYLAND

CITY           SKY/WX    TMP DP  RH WIND       PRES   REMARKS
PATUXENT RIVER MOSUNNY   78  65  63 W10       30.09S
ST INIGOES     SUNNY     76  65  68 SW7       30.10S
LEONARDTOWN*   SUNNY     77  63  61 SW10      30.12R

$$

MDZ003>005-271500-
NORTH CENTRAL MARYLAND

CITY           SKY/WX    TMP DP  RH WIND       PRES   REMARKS
FREDERICK*     SUNNY     81  70  69 SW5       30.11S
HAGERSTOWN APT SUNNY     79  64  60 S6        30.09S
WESTMINSTER*   SUNNY     79  75  89 W7        30.09S

$$

MDZ501>502-271500-
WESTERN MARYLAND

CITY           SKY/WX    TMP DP  RH WIND       PRES   REMARKS
OAKLAND*       MOSUNNY   70  59  68 NW6       30.18S
CUMBERLAND*    PTSUNNY   70  70 100 CALM      30.13F

$$

VAZ025>031-271500-
SHENANDOAH VALLEY

CITY           SKY/WX    TMP DP  RH WIND       PRES   REMARKS
WINCHESTER*    FAIR      79  66  65 S5        30.10S
FRONT ROYAL*   FAIR      79  68  69 S3        30.09F
LURAY*         FAIR      77  68  73 CALM      30.12S
NEW MARKET*    FAIR      76  67  72 CALM      30.11S
STAUNTON*      FAIR      73  66  77 CALM      30.15R
WAYNESBORO*    FAIR      77  62  59 CALM      30.14R

$$

WVZ021-048>050-054>055-271500-
EASTERN WEST VIRGINIA PANHANDLE

CITY           SKY/WX    TMP DP  RH WIND       PRES   REMARKS
MARTINSBURG    FAIR      78  66  66 VRB3      30.08F
PETERSBURG*    FAIR      76  67  71 CALM      30.12S

$$

VAZ036>039-050-271500-
CENTRAL FOOTHILLS

CITY           SKY/WX    TMP DP  RH WIND       PRES   REMARKS
CHARLOTTESVILL FAIR      79  67  66 VRB5      30.10S
CULPEPER*      FAIR      80  69  68 CALM      30.10S
ORANGE*        FAIR      79  68  69 SW6       30.11S
GORDONSVILLE*  FAIR      78  68  72 S6        30.10S
WARRENTON*     FAIR      81  63  53 CALM      30.09S

$$

VAZ055>057-271500-
NORTH AND CENTRAL PIEDMONT

CITY           SKY/WX    TMP DP  RH WIND       PRES   REMARKS
FREDERICKSBRG* FAIR      80  68  68 S5        30.08
STAFFORD*      FAIR      78  67  67 CALM      30.13S

$$

NCZ024-NYZ072-PAZ021-071-VAZ022-071-271500-
OTHER REGIONAL OBSERVATIONS

CITY           SKY/WX    TMP DP  RH WIND       PRES   REMARKS
NEW YORK CITY  CLOUDY    79  62  56 VRB3      30.09S
PHILADELPHIA   MOSUNNY   79  65  62 SW8       30.06F
PITTSBURGH     PTSUNNY   76  62  62 SW9       30.07F
ROANOKE        FAIR      77  65  66 W6        30.16S
RICHMOND       FAIR      76  64  66 S7        30.12S
RALEIGH        MOSUNNY   77  62  59 SW9       30.16S

$$

ANZ530>537-271500-
MARINE OBSERVATIONS

STATION/POSITION TIME  TEMP    WIND        PRES
                       AIR SEA DIR/SP/G
                 (UTC) (F)     (DEG/KT/KT) (MB)
THOMAS PT LIGHT  1400   70 65  170/ 10/ 10 1019.9S
BALT KEY BRIDGE  1300   73     100/  3/  4 1018.2R
COVE POINT       1300   74     270/ 17/ 21 1019.3R
LEWISETTA        1300   75 71  240/ 13/ 15 1019.0R
SOLOMONS ISLAND  1300   76 65  260/  4/  8   N/A
PINEY POINT      1300           30/  4/  5   N/A

$$




USA.gov is the U.S. government's official web portal to all federal, state and local government web resources and services.